Time,TemperatureF,DewpointF,PressureIn,WindDirection,WindDirectionDegrees,WindSpeedMPH,WindSpeedGustMPH,Humidity,HourlyPrecipIn,Conditions,Clouds,dailyrainin,SoftwareType,DateUTC
2013-06-16 00:01:00,75.0,70.0,29.94,SW,226,0.0,4.0,84,0.00,,,0.00,,2013-06-16 05:01:00,
2013-06-16 00:11:00,75.0,70.0,29.94,SW,226,0.0,4.0,84,0.00,,,0.00,,2013-06-16 05:11:00,
2013-06-16 00:22:00,74.0,68.0,29.94,ESE,104,0.0,1.0,83,0.00,,,0.00,,2013-06-16 05:22:00,
2013-06-16 00:33:00,74.0,69.0,29.94,ESE,110,0.0,0.0,84,0.00,,,0.00,,2013-06-16 05:33:00,
2013-06-16 00:43:00,74.0,69.0,29.94,ESE,110,0.0,0.0,84,0.00,,,0.00,,2013-06-16 05:43:00,
2013-06-16 00:52:00,74.0,69.0,29.94,ESE,110,0.0,0.0,85,0.00,,,0.00,,2013-06-16 05:52:00,
2013-06-16 01:01:00,73.0,69.0,29.93,ESE,110,0.0,0.0,86,0.00,,,0.00,,2013-06-16 06:01:00,
2013-06-16 01:11:00,73.0,69.0,29.93,ESE,110,0.0,0.0,86,0.00,,,0.00,,2013-06-16 06:11:00,
2013-06-16 01:22:00,72.0,68.0,29.94,ESE,110,0.0,0.0,87,0.00,,,0.00,,2013-06-16 06:22:00,
2013-06-16 01:33:00,72.0,69.0,29.93,South,172,0.0,0.0,89,0.00,,,0.00,,2013-06-16 06:33:00,
2013-06-16 01:43:00,72.0,69.0,29.93,South,172,0.0,0.0,89,0.00,,,0.00,,2013-06-16 06:43:00,
2013-06-16 01:52:00,72.0,69.0,29.92,SE,130,0.0,0.0,89,0.00,,,0.00,,2013-06-16 06:52:00,
2013-06-16 02:01:00,71.0,68.0,29.91,SE,130,0.0,0.0,90,0.00,,,0.00,,2013-06-16 07:01:00,
2013-06-16 02:11:00,71.0,68.0,29.91,SE,130,0.0,0.0,90,0.00,,,0.00,,2013-06-16 07:11:00,
2013-06-16 02:22:00,71.0,68.0,29.91,SE,137,0.0,0.0,90,0.00,,,0.00,,2013-06-16 07:22:00,
2013-06-16 02:32:00,71.0,68.0,29.91,ESE,113,0.0,0.0,91,0.00,,,0.00,,2013-06-16 07:32:00,
2013-06-16 02:43:00,71.0,68.0,29.91,ESE,113,0.0,0.0,91,0.00,,,0.00,,2013-06-16 07:43:00,
2013-06-16 02:53:00,71.0,69.0,29.91,ESE,113,0.0,0.0,92,0.00,,,0.00,,2013-06-16 07:53:00,
2013-06-16 03:02:00,71.0,69.0,29.91,SE,143,0.0,0.0,92,0.00,,,0.00,,2013-06-16 08:02:00,
2013-06-16 03:11:00,71.0,69.0,29.91,SE,143,0.0,0.0,92,0.00,,,0.00,,2013-06-16 08:11:00,
2013-06-16 03:22:00,70.0,68.0,29.91,SE,142,0.0,0.0,92,0.00,,,0.00,,2013-06-16 08:22:00,
2013-06-16 03:33:00,70.0,68.0,29.91,SE,142,0.0,0.0,93,0.00,,,0.00,,2013-06-16 08:33:00,
2013-06-16 03:43:00,70.0,68.0,29.91,SE,142,0.0,0.0,93,0.00,,,0.00,,2013-06-16 08:43:00,
2013-06-16 03:54:00,70.0,68.0,29.92,SE,143,0.0,0.0,93,0.00,,,0.00,,2013-06-16 08:54:00,
2013-06-16 04:01:00,70.0,68.0,29.92,SE,143,0.0,0.0,93,0.00,,,0.00,,2013-06-16 09:01:00,
2013-06-16 04:11:00,70.0,68.0,29.92,SE,143,0.0,0.0,93,0.00,,,0.00,,2013-06-16 09:11:00,
2013-06-16 04:22:00,70.0,68.0,29.92,SE,142,0.0,0.0,94,0.00,,,0.00,,2013-06-16 09:22:00,
2013-06-16 04:33:00,70.0,68.0,29.93,SE,142,0.0,0.0,93,0.00,,,0.00,,2013-06-16 09:33:00,
2013-06-16 04:42:00,70.0,68.0,29.93,SE,142,0.0,0.0,93,0.00,,,0.00,,2013-06-16 09:42:00,
2013-06-16 04:52:00,70.0,68.0,29.93,SE,142,0.0,0.0,94,0.00,,,0.00,,2013-06-16 09:52:00,
2013-06-16 05:01:00,71.0,69.0,29.94,SE,142,0.0,0.0,93,0.00,,,0.00,,2013-06-16 10:01:00,
2013-06-16 05:12:00,71.0,69.0,29.94,SE,142,0.0,0.0,93,0.00,,,0.00,,2013-06-16 10:12:00,
2013-06-16 05:22:00,71.0,69.0,29.94,East,93,0.0,1.0,92,0.00,,,0.00,,2013-06-16 10:22:00,
2013-06-16 05:33:00,71.0,69.0,29.93,East,99,0.0,0.0,92,0.00,,,0.00,,2013-06-16 10:33:00,
2013-06-16 05:43:00,71.0,69.0,29.93,East,99,0.0,0.0,92,0.00,,,0.00,,2013-06-16 10:43:00,
2013-06-16 05:54:00,71.0,69.0,29.93,SE,145,0.0,0.0,93,0.00,,,0.00,,2013-06-16 10:54:00,
2013-06-16 06:02:00,71.0,69.0,29.94,SE,131,0.0,0.0,93,0.00,,,0.00,,2013-06-16 11:02:00,
2013-06-16 06:11:00,71.0,69.0,29.94,SE,131,0.0,0.0,93,0.00,,,0.00,,2013-06-16 11:11:00,
2013-06-16 06:22:00,70.0,68.0,29.95,ESE,123,0.0,1.0,94,0.00,,,0.00,,2013-06-16 11:22:00,
2013-06-16 06:33:00,71.0,69.0,29.96,NE,36,0.0,2.0,95,0.00,,,0.00,,2013-06-16 11:33:00,
2013-06-16 06:43:00,71.0,69.0,29.96,NE,36,0.0,2.0,95,0.00,,,0.00,,2013-06-16 11:43:00,
2013-06-16 06:53:00,71.0,69.0,29.96,East,91,0.0,2.0,94,0.00,,,0.00,,2013-06-16 11:53:00,
2013-06-16 07:02:00,72.0,70.0,29.97,East,92,0.0,1.0,93,0.00,,,0.00,,2013-06-16 12:02:00,
2013-06-16 07:11:00,72.0,70.0,29.97,East,92,0.0,1.0,93,0.00,,,0.00,,2013-06-16 12:11:00,
2013-06-16 07:22:00,72.0,70.0,29.97,East,92,0.0,1.0,93,0.00,,,0.00,,2013-06-16 12:22:00,
2013-06-16 07:32:00,72.0,70.0,29.97,East,91,0.0,0.0,93,0.00,,,0.00,,2013-06-16 12:32:00,
2013-06-16 07:42:00,72.0,70.0,29.97,East,91,0.0,0.0,93,0.00,,,0.00,,2013-06-16 12:42:00,
2013-06-16 07:53:00,73.0,71.0,29.98,East,94,0.0,0.0,92,0.00,,,0.00,,2013-06-16 12:53:00,
2013-06-16 08:01:00,74.0,71.0,29.98,East,94,0.0,0.0,91,0.00,,,0.00,,2013-06-16 13:01:00,
2013-06-16 08:11:00,74.0,71.0,29.98,East,94,0.0,0.0,91,0.00,,,0.00,,2013-06-16 13:11:00,
2013-06-16 08:22:00,75.0,72.0,29.98,ESE,110,0.0,1.0,91,0.00,,,0.00,,2013-06-16 13:22:00,
2013-06-16 08:34:00,78.0,73.0,29.99,SE,129,0.0,2.0,85,0.00,,,0.00,,2013-06-16 13:34:00,
2013-06-16 08:42:00,78.0,73.0,29.99,SE,129,0.0,2.0,85,0.00,,,0.00,,2013-06-16 13:42:00,
2013-06-16 08:53:00,79.0,73.0,29.98,SE,146,0.0,2.0,81,0.00,,,0.00,,2013-06-16 13:53:00,
2013-06-16 09:12:00,81.0,75.0,29.98,South,183,0.0,2.0,81,0.00,,,0.00,,2013-06-16 14:12:00,
2013-06-16 09:22:00,82.0,74.0,29.98,SSW,211,1.0,3.0,78,0.00,,,0.00,,2013-06-16 14:22:00,
2013-06-16 09:34:00,82.0,74.0,29.98,WSW,243,0.0,2.0,78,0.00,,,0.00,,2013-06-16 14:34:00,
2013-06-16 09:43:00,82.0,74.0,29.98,WSW,243,0.0,2.0,78,0.00,,,0.00,,2013-06-16 14:43:00,
2013-06-16 09:52:00,83.0,75.0,29.98,SSW,193,0.0,2.0,77,0.00,,,0.00,,2013-06-16 14:52:00,
2013-06-16 10:02:00,84.0,75.0,29.98,SW,236,1.0,3.0,74,0.00,,,0.00,,2013-06-16 15:02:00,
2013-06-16 10:12:00,84.0,75.0,29.98,SW,236,1.0,3.0,74,0.00,,,0.00,,2013-06-16 15:12:00,
2013-06-16 10:23:00,85.0,75.0,29.97,WSW,252,1.0,4.0,71,0.00,,,0.00,,2013-06-16 15:23:00,
2013-06-16 10:33:00,86.0,75.0,29.96,SW,229,0.0,3.0,69,0.00,,,0.00,,2013-06-16 15:33:00,
2013-06-16 10:43:00,86.0,75.0,29.96,SW,229,0.0,3.0,69,0.00,,,0.00,,2013-06-16 15:43:00,
2013-06-16 10:53:00,87.0,74.0,29.96,WSW,239,1.0,4.0,66,0.00,,,0.00,,2013-06-16 15:53:00,
2013-06-16 11:01:00,88.0,75.0,29.96,SSW,210,1.0,4.0,65,0.00,,,0.00,,2013-06-16 16:01:00,
2013-06-16 11:12:00,88.0,75.0,29.96,SSW,210,1.0,4.0,65,0.00,,,0.00,,2013-06-16 16:12:00,
2013-06-16 11:22:00,89.0,74.0,29.96,SSW,211,2.0,3.0,61,0.00,,,0.00,,2013-06-16 16:22:00,
2013-06-16 11:33:00,89.0,74.0,29.96,SW,218,1.0,4.0,61,0.00,,,0.00,,2013-06-16 16:33:00,
2013-06-16 11:43:00,89.0,74.0,29.96,SW,218,1.0,4.0,61,0.00,,,0.00,,2013-06-16 16:43:00,
2013-06-16 11:53:00,90.0,75.0,29.96,SW,215,1.0,3.0,61,0.00,,,0.00,,2013-06-16 16:53:00,
2013-06-16 12:02:00,90.0,75.0,29.95,WSW,243,1.0,5.0,61,0.00,,,0.00,,2013-06-16 17:02:00,
2013-06-16 12:11:00,90.0,75.0,29.95,WSW,243,1.0,5.0,61,0.00,,,0.00,,2013-06-16 17:11:00,
2013-06-16 12:22:00,91.0,76.0,29.95,SW,232,1.0,5.0,61,0.00,,,0.00,,2013-06-16 17:22:00,
2013-06-16 12:34:00,92.0,76.0,29.94,SW,219,1.0,3.0,60,0.00,,,0.00,,2013-06-16 17:34:00,
2013-06-16 12:43:00,92.0,76.0,29.94,SW,219,1.0,3.0,60,0.00,,,0.00,,2013-06-16 17:43:00,
2013-06-16 12:53:00,91.0,75.0,29.94,WSW,249,2.0,4.0,59,0.00,,,0.00,,2013-06-16 17:53:00,
2013-06-16 13:02:00,91.0,75.0,29.93,SSW,203,1.0,5.0,59,0.00,,,0.00,,2013-06-16 18:02:00,
2013-06-16 13:12:00,91.0,75.0,29.93,SSW,203,1.0,5.0,59,0.00,,,0.00,,2013-06-16 18:12:00,
2013-06-16 13:22:00,92.0,74.0,29.93,SW,231,2.0,3.0,56,0.00,,,0.00,,2013-06-16 18:22:00,
2013-06-16 13:33:00,92.0,73.0,29.93,WSW,253,1.0,3.0,55,0.00,,,0.00,,2013-06-16 18:33:00,
2013-06-16 13:43:00,92.0,73.0,29.93,WSW,253,1.0,3.0,55,0.00,,,0.00,,2013-06-16 18:43:00,
2013-06-16 13:52:00,93.0,74.0,29.92,ESE,110,0.0,3.0,54,0.00,,,0.00,,2013-06-16 18:52:00,
2013-06-16 14:01:00,93.0,74.0,29.91,SE,141,1.0,3.0,55,0.00,,,0.00,,2013-06-16 19:01:00,
2013-06-16 14:11:00,93.0,74.0,29.91,SE,141,1.0,3.0,55,0.00,,,0.00,,2013-06-16 19:11:00,
2013-06-16 14:22:00,94.0,75.0,29.90,West,278,1.0,4.0,54,0.00,,,0.00,,2013-06-16 19:22:00,
2013-06-16 14:33:00,93.0,73.0,29.90,West,272,0.0,3.0,53,0.00,,,0.00,,2013-06-16 19:33:00,
2013-06-16 14:43:00,93.0,73.0,29.90,West,272,0.0,3.0,53,0.00,,,0.00,,2013-06-16 19:43:00,
2013-06-16 14:53:00,94.0,75.0,29.89,SW,219,1.0,3.0,54,0.00,,,0.00,,2013-06-16 19:53:00,
2013-06-16 15:02:00,94.0,74.0,29.89,SW,222,1.0,2.0,53,0.00,,,0.00,,2013-06-16 20:02:00,
2013-06-16 15:11:00,94.0,74.0,29.89,SW,222,1.0,2.0,53,0.00,,,0.00,,2013-06-16 20:11:00,
2013-06-16 15:22:00,94.0,74.0,29.89,South,183,0.0,3.0,53,0.00,,,0.00,,2013-06-16 20:22:00,
2013-06-16 15:33:00,94.0,74.0,29.88,SW,229,1.0,3.0,52,0.00,,,0.00,,2013-06-16 20:33:00,
2013-06-16 15:42:00,94.0,74.0,29.88,SW,229,1.0,3.0,52,0.00,,,0.00,,2013-06-16 20:42:00,
2013-06-16 15:53:00,94.0,74.0,29.88,South,170,2.0,4.0,52,0.00,,,0.00,,2013-06-16 20:53:00,
2013-06-16 16:01:00,95.0,75.0,29.88,SW,214,0.0,3.0,52,0.00,,,0.00,,2013-06-16 21:01:00,
2013-06-16 16:11:00,95.0,75.0,29.88,SW,214,0.0,3.0,52,0.00,,,0.00,,2013-06-16 21:11:00,
2013-06-16 16:22:00,94.0,74.0,29.88,SW,232,1.0,5.0,53,0.00,,,0.00,,2013-06-16 21:22:00,
2013-06-16 16:32:00,94.0,75.0,29.87,WSW,238,1.0,5.0,54,0.00,,,0.00,,2013-06-16 21:32:00,
2013-06-16 16:42:00,94.0,75.0,29.87,WSW,238,1.0,5.0,54,0.00,,,0.00,,2013-06-16 21:42:00,
2013-06-16 16:53:00,94.0,73.0,29.88,SW,216,1.0,3.0,51,0.00,,,0.00,,2013-06-16 21:53:00,
2013-06-16 17:01:00,94.0,73.0,29.88,SW,216,1.0,3.0,51,0.00,,,0.00,,2013-06-16 22:01:00,
2013-06-16 17:12:00,94.0,74.0,29.87,WSW,246,1.0,3.0,52,0.00,,,0.00,,2013-06-16 22:12:00,
2013-06-16 17:22:00,95.0,75.0,29.87,SW,233,1.0,2.0,52,0.00,,,0.00,,2013-06-16 22:22:00,
2013-06-16 17:32:00,95.0,75.0,29.87,SW,233,1.0,2.0,52,0.00,,,0.00,,2013-06-16 22:32:00,
2013-06-16 17:42:00,94.0,75.0,29.86,WSW,245,1.0,3.0,54,0.00,,,0.00,,2013-06-16 22:42:00,
2013-06-16 17:52:00,95.0,75.0,29.86,SW,222,1.0,4.0,53,0.00,,,0.00,,2013-06-16 22:52:00,
2013-06-16 18:01:00,95.0,75.0,29.86,SW,222,1.0,4.0,53,0.00,,,0.00,,2013-06-16 23:01:00,
2013-06-16 18:11:00,93.0,74.0,29.85,SW,217,1.0,2.0,54,0.00,,,0.00,,2013-06-16 23:11:00,
2013-06-16 18:22:00,92.0,73.0,29.85,WSW,253,0.0,3.0,55,0.00,,,0.00,,2013-06-16 23:22:00,
2013-06-16 18:32:00,92.0,73.0,29.85,WSW,253,0.0,3.0,55,0.00,,,0.00,,2013-06-16 23:32:00,
2013-06-16 18:42:00,93.0,74.0,29.85,SSW,207,0.0,2.0,55,0.00,,,0.00,,2013-06-16 23:42:00,
2013-06-16 18:51:00,92.0,74.0,29.85,SW,222,0.0,1.0,56,0.00,,,0.00,,2013-06-16 23:51:00,
2013-06-16 19:02:00,92.0,74.0,29.85,SW,222,0.0,1.0,56,0.00,,,0.00,,2013-06-17 00:02:00,
2013-06-16 19:11:00,92.0,73.0,29.84,SSW,210,0.0,2.0,55,0.00,,,0.00,,2013-06-17 00:11:00,
2013-06-16 19:22:00,91.0,74.0,29.84,SW,217,0.0,0.0,57,0.00,,,0.00,,2013-06-17 00:22:00,
2013-06-16 19:32:00,91.0,74.0,29.84,SW,217,0.0,0.0,57,0.00,,,0.00,,2013-06-17 00:32:00,
2013-06-16 19:43:00,91.0,75.0,29.84,SE,131,0.0,1.0,59,0.00,,,0.00,,2013-06-17 00:43:00,
2013-06-16 19:52:00,90.0,74.0,29.84,SE,127,0.0,4.0,59,0.00,,,0.00,,2013-06-17 00:52:00,
2013-06-16 20:02:00,90.0,74.0,29.84,SE,127,0.0,4.0,59,0.00,,,0.00,,2013-06-17 01:02:00,
2013-06-16 20:11:00,90.0,74.0,29.85,SW,222,1.0,3.0,60,0.00,,,0.00,,2013-06-17 01:11:00,
2013-06-16 20:22:00,90.0,76.0,29.85,ESE,105,0.0,3.0,63,0.00,,,0.00,,2013-06-17 01:22:00,
2013-06-16 20:32:00,90.0,76.0,29.85,ESE,105,0.0,3.0,63,0.00,,,0.00,,2013-06-17 01:32:00,
2013-06-16 20:43:00,89.0,76.0,29.86,SE,139,0.0,1.0,65,0.00,,,0.00,,2013-06-17 01:43:00,
2013-06-16 20:53:00,88.0,76.0,29.85,South,179,0.0,1.0,67,0.00,,,0.00,,2013-06-17 01:53:00,
2013-06-16 21:02:00,88.0,76.0,29.85,South,179,0.0,1.0,67,0.00,,,0.00,,2013-06-17 02:02:00,
2013-06-16 21:12:00,87.0,76.0,29.86,South,179,0.0,1.0,69,0.00,,,0.00,,2013-06-17 02:12:00,
2013-06-16 21:22:00,86.0,75.0,29.86,SE,131,0.0,1.0,71,0.00,,,0.00,,2013-06-17 02:22:00,
2013-06-16 21:34:00,86.0,75.0,29.86,SE,131,0.0,1.0,71,0.00,,,0.00,,2013-06-17 02:34:00,
2013-06-16 21:43:00,85.0,75.0,29.87,East,101,0.0,1.0,72,0.00,,,0.00,,2013-06-17 02:43:00,
2013-06-16 21:53:00,85.0,76.0,29.88,SE,142,0.0,1.0,74,0.00,,,0.00,,2013-06-17 02:53:00,
2013-06-16 22:02:00,85.0,76.0,29.88,SE,142,0.0,1.0,74,0.00,,,0.00,,2013-06-17 03:02:00,
2013-06-16 22:12:00,84.0,75.0,29.87,SSE,159,0.0,1.0,74,0.00,,,0.00,,2013-06-17 03:12:00,
2013-06-16 22:22:00,84.0,75.0,29.87,SSW,204,0.0,1.0,74,0.00,,,0.00,,2013-06-17 03:22:00,
2013-06-16 22:33:00,84.0,75.0,29.87,SSW,204,0.0,1.0,74,0.00,,,0.00,,2013-06-17 03:33:00,
2013-06-16 22:44:00,84.0,75.0,29.86,SE,136,0.0,3.0,75,0.00,,,0.00,,2013-06-17 03:44:00,
2013-06-16 22:53:00,83.0,75.0,29.86,South,188,1.0,6.0,77,0.00,,,0.00,,2013-06-17 03:53:00,
2013-06-16 23:02:00,83.0,75.0,29.86,South,188,1.0,6.0,77,0.00,,,0.00,,2013-06-17 04:02:00,
2013-06-16 23:12:00,84.0,73.0,29.86,SSE,165,2.0,6.0,70,0.00,,,0.00,,2013-06-17 04:12:00,
2013-06-16 23:22:00,85.0,72.0,29.88,NE,51,1.0,7.0,66,0.00,,,0.00,,2013-06-17 04:22:00,
2013-06-16 23:34:00,85.0,72.0,29.88,NE,51,1.0,7.0,66,0.00,,,0.00,,2013-06-17 04:34:00,
2013-06-16 23:42:00,84.0,71.0,29.88,SSE,167,0.0,4.0,66,0.00,,,0.00,,2013-06-17 04:42:00,
2013-06-16 23:53:00,84.0,73.0,29.90,ENE,77,0.0,5.0,69,0.00,,,0.00,,2013-06-17 04:53:00,